Regional Weather Roundup
Issued by NWS Charleston, WV

Home | Current Version | Previous Version | Graphics & Text | Print | Product List | Glossary On
Versions: 1 2 3 4 5 6 7 8 9 10 11 12 13 14 15 16 17 18 19 20 21 22 23 24 25 26 27 28 29 30 31 32 33 34 35 36 37 38 39 40 41 42 43 44 45 46 47 48 49 50
000
ASUS41 KRLX 151110
RWRRLX
West Virginia Regional Weather Roundup
National Weather Service Charleston WV
600 AM EST FRI DEC 15 2017

Note: "fair" indicates few or no clouds below 12,000 feet with no
significant weather and/or obstructions to visibility.

WVZ003-151200-
Northern Panhandle of West Virginia

CITY           SKY/WX    TMP DP  RH WIND       PRES   REMARKS
WHEELING       CLOUDY    15  11  83 CALM      29.98R
$$

WVZ009-151200-
Northwest West Virginia

CITY           SKY/WX    TMP DP  RH WIND       PRES   REMARKS
PARKERSBURG    CLOUDY    23  17  78 CALM      30.03F
$$

WVZ006-151200-
Western West Virginia

CITY           SKY/WX    TMP DP  RH WIND       PRES   REMARKS
HUNTINGTON     CLOUDY    25  18  74 CALM      30.01S
$$

WVZ015-151200-
West Central West Virginia

CITY           SKY/WX    TMP DP  RH WIND       PRES   REMARKS
CHARLESTON     CLOUDY    28  19  69 CALM      29.99S
$$

WVZ022-031-151200-
North Central West Virginia

CITY           SKY/WX    TMP DP  RH WIND       PRES   REMARKS
CLARKSBURG     CLOUDY    27  20  75 CALM      29.97F
MORGANTOWN     CLOUDY    24  18  77 CALM      29.97F
$$

WVZ025-035-042-045-151200-
Southern West Virginia

CITY           SKY/WX    TMP DP  RH WIND       PRES   REMARKS
BECKLEY        CLOUDY    28  21  75 CALM      29.90S
LOGAN          CLOUDY    28  23  80 CALM      29.95S
BLUEFIELD      CLOUDY    26  20  77 CALM      29.90F
LEWISBURG      CLOUDY    28  22  79 N5        29.92S
$$

WVZ047-151200-
Northern Mountains of West Virginia

CITY           SKY/WX    TMP DP  RH WIND       PRES   REMARKS
ELKINS         CLOUDY    26  21  81 CALM      29.92F
$$

WVZ052-151200-
Eastern Panhandle of West Virginia

CITY           SKY/WX    TMP DP  RH WIND       PRES   REMARKS
MARTINSBURG    CLOUDY    24  16  71 CALM      30.06F
PETERSBURG     CLOUDY    25  18  73 CALM      30.01S
$$



USA.gov is the U.S. government's official web portal to all federal, state and local government web resources and services.